Find Starlink 3716

NORAD ID: 52092 Int'l Des: 2022-029 Owner: SPXS Country: US Constellation: starlink operational
LEOCIRCULAR

实时位置

正在加载3D地球...

关于 Starlink 3716

正在加载描述...

即将过境

Passes for default location (London). Set your location on the main map for personalized predictions.

高度历史

Loading altitude history...

两行轨道根数

1 52092U 22029E 26127.17430836 .00000158 00000-0 28020-4 0 9993
2 52092 53.2165 186.5697 0001304 89.5978 270.5164 15.08838084229483
Epoch: May 7, 2026 • Age: 15 hours

当前状态

高度 541.7 km
速度 7.59 km/s
星下点 -6.13°S, 147.11°W
发射日期 Mar 19, 2022
运行时间 4.1 years
类型 internet

技术详情

分类 Payload
质量 297.00 kg
干质量 275.00 kg
总质量 297.00 kg
长度 0.20 m
直径 2.80 m
跨度 9.00 m
形状 Box + pan
制造商 SPXS
平台类型 Starlink
阶段状态 In Orbit
所有者/国家 SPXS/US

Most Searched